Weather History for Pensacola NAS, FL

Change the Weather History Date:

Wednesday, January 30, 2013

  Actual Average Record
Temperature  
Mean Temperature 60 °F -  
Max Temperature 73 °F 59 °F 42 °F (2014)
Min Temperature 45 °F 43 °F 18 °F (2014)
Degree Days  
Heating Degree Days 4    
Growing Degree Days 10 (Base 50)    
Moisture  
Dew Point 59 °F    
Average Humidity 89    
Maximum Humidity 100    
Minimum Humidity 56    
Precipitation  
Precipitation 0.18 in - - ()
Sea Level Pressure  
Sea Level Pressure 29.82 in    
Wind  
Wind Speed 17 mph (SW)    
Max Wind Speed 25 mph    
Max Gust Speed 38 mph    
Visibility 6 miles    
Events Rain    
Averages and records for this station are not official NWS values.
T = Trace of Precipitation, MM = Missing Value Source: NWS Daily Summary

Daily Weather History Graph

Daily Weather History Graph

Search for Another Location

Airport:

Trip Planner

Search our weather history database for the weather conditions in past years. The results will help you decide how hot, cold, wet, or windy it might be!

Date:

Astronomy

Jan. 30, 2013 Rise Set
Actual Time 6:41 AM CST 5:24 PM CST
Civil Twilight 6:15 AM CST 5:49 PM CST
Nautical Twilight 5:47 AM CST 6:18 PM CST
Astronomical Twilight 5:18 AM CST 6:46 PM CST
Moon 9:01 PM CST 8:27 AM CST
Length of Visible Light 11h 33m
Length of Day
10h 43m
Waning Gibbous, 87% of the Moon is Illuminated
Jan 30
Waning Gibbous
Feb 3
Last Quarter
Feb 10
New
Feb 17
First Quarter
Feb 25
Full

Hourly Weather History & Observations

Time (CST) Temp. Windchill Dew Point Humidity Pressure Visibility Wind Dir Wind Speed Gust Speed Precip Events Conditions
12:56 AM 70.0 °F - 70.0 °F 100% 29.90 in 5.0 mi South 16.1 mph 24.2 mph N/A   Overcast
1:56 AM 70.0 °F - 70.0 °F 100% 29.88 in 4.0 mi South 17.3 mph - N/A   Overcast
2:56 AM 70.0 °F - 70.0 °F 100% 29.86 in 4.0 mi South 17.3 mph - N/A   Overcast
3:56 AM 70.0 °F - 70.0 °F 100% 29.84 in 4.0 mi South 18.4 mph - N/A   Overcast
4:56 AM 70.0 °F - 70.0 °F 100% 29.79 in 5.0 mi South 20.7 mph 29.9 mph N/A   Overcast
5:56 AM 70.0 °F - 70.0 °F 100% 29.80 in 6.0 mi South 19.6 mph 26.5 mph N/A   Overcast
6:45 AM 69.8 °F - 69.8 °F 100% 29.78 in 3.0 mi South 20.7 mph 28.8 mph N/A   Overcast
6:56 AM 70.0 °F - 70.0 °F 100% 29.79 in 3.0 mi South 20.7 mph - N/A   Overcast
7:19 AM 69.8 °F - 69.8 °F 100% 29.78 in 2.0 mi South 19.6 mph - N/A   Overcast
7:56 AM 71.1 °F - 70.0 °F 96% 29.78 in 2.0 mi South 21.9 mph - N/A   Overcast
8:21 AM 71.6 °F - 69.8 °F 94% 29.78 in 3.0 mi South 21.9 mph - N/A   Overcast
8:56 AM 72.0 °F - 70.0 °F 93% 29.78 in 3.0 mi South 23.0 mph 29.9 mph N/A   Overcast
9:56 AM 72.0 °F - 70.0 °F 93% 29.78 in 3.0 mi South 18.4 mph - N/A   Overcast
10:56 AM 73.0 °F - 70.0 °F 90% 29.78 in 3.0 mi South 21.9 mph 29.9 mph N/A   Mostly Cloudy
11:29 AM 71.6 °F - 69.8 °F 94% 29.75 in 5.0 mi SSW 20.7 mph 29.9 mph N/A   Overcast
11:56 AM 73.9 °F - 70.0 °F 87% 29.75 in 6.0 mi SSW 23.0 mph 31.1 mph N/A   Overcast
12:34 PM 73.4 °F - 69.8 °F 88% 29.70 in 6.0 mi SSW 24.2 mph 31.1 mph N/A   Mostly Cloudy
12:56 PM 73.9 °F - 70.0 °F 87% 29.70 in 7.0 mi SSW 24.2 mph 33.4 mph N/A   Mostly Cloudy
1:04 PM 73.4 °F - 69.8 °F 88% 29.68 in 7.0 mi South 25.3 mph 34.5 mph N/A   Mostly Cloudy
1:20 PM 71.6 °F - 68.0 °F 88% 29.70 in 5.0 mi West 20.7 mph 38.0 mph 0.00 in Rain Rain
1:25 PM 66.2 °F - 64.4 °F 94% 29.71 in 2.5 mi WSW 15.0 mph 38.0 mph 0.04 in Rain Light Rain
1:34 PM 62.6 °F - 62.6 °F 100% 29.72 in 1.0 mi West 13.8 mph 20.7 mph 0.11 in Rain Heavy Rain
1:42 PM 62.6 °F - 62.6 °F 100% 29.71 in 3.0 mi West 10.4 mph 18.4 mph 0.12 in Rain Light Rain
1:56 PM 62.1 °F - 61.0 °F 96% 29.74 in 10.0 mi WNW 17.3 mph 33.4 mph 0.12 in Rain Light Rain
2:56 PM 53.1 °F - 51.1 °F 93% 29.80 in 9.0 mi WNW 9.2 mph 20.7 mph 0.00 in Rain Light Rain
3:20 PM 53.6 °F - 50.0 °F 88% 29.80 in 10.0 mi West 8.1 mph 18.4 mph 0.00 in   Overcast
3:36 PM 53.6 °F - 50.0 °F 88% 29.81 in 10.0 mi West 9.2 mph - 0.00 in Rain Light Rain
3:56 PM 53.1 °F - 48.9 °F 86% 29.81 in 10.0 mi Variable 4.6 mph - 0.00 in   Overcast
4:05 PM 53.6 °F - 48.2 °F 82% 29.80 in 10.0 mi Variable 6.9 mph - 0.00 in Rain Light Rain
4:56 PM 50.0 °F - 48.0 °F 93% 29.83 in 10.0 mi West 3.5 mph - 0.05 in   Overcast
5:14 PM 51.8 °F - 48.2 °F 88% 29.83 in 10.0 mi Calm Calm - 0.00 in Rain Light Rain
5:56 PM 53.1 °F - 50.0 °F 89% 29.84 in 10.0 mi West 5.8 mph - 0.01 in Rain Light Rain
6:48 PM 53.6 °F - 46.4 °F 77% 29.89 in 10.0 mi West 9.2 mph 17.3 mph 0.00 in   Overcast
6:56 PM 54.0 °F - 46.0 °F 75% 29.91 in 10.0 mi West 9.2 mph 16.1 mph 0.00 in   Overcast
7:56 PM 54.0 °F - 43.0 °F 66% 29.94 in 10.0 mi WNW 8.1 mph 16.1 mph N/A   Scattered Clouds
8:56 PM 52.0 °F - 39.9 °F 63% 29.99 in 10.0 mi Variable 6.9 mph 16.1 mph N/A   Partly Cloudy
9:56 PM 50.0 °F - 37.0 °F 61% 30.04 in 10.0 mi NW 12.7 mph 23.0 mph N/A   Clear
10:56 PM 48.0 °F - 35.1 °F 61% 30.08 in 10.0 mi NW 9.2 mph 18.4 mph N/A   Clear
11:56 PM 45.0 °F 37.6 °F 30.0 °F 56% 30.11 in 10.0 mi NNW 17.3 mph 26.5 mph N/A   Clear